Location: Bretagne
(43.8474°N, 0.4650°W)
Time: 10:28:41
(UTC+00:00)

Cosmos 304 Rocket - Pass Details

Date: 15 January 2026
Orbit: 669 x 676 km, 74.0° (Epoch: 11 February)

Event Time Altitude Azimuth Distance (km) Brightness Sun altitude
Rises 17:13:48 0° 336° (NNW) 3,036 7.1 -4.7°
Reaches altitude 10° 17:16:07 10° 334° (NNW) 2,116 6.3 -5.0°
Maximum altitude 17:20:50 66° 253° (WSW) 737 4.3 -5.8°
Drops below altitude 10° 17:25:30 10° 172° (S) 2,096 6.5 -6.6°
Sets 17:27:47 0° 169° (S) 3,004 7.2 -7.0°
